| time (UTC) | temp F | wind direction | speed knots | gust knots | rain 1hr in | rain 24hr in | rain mn in | humidity % | barometer mb |
| 20260503005028 | 60 | 179 | 2.6 | 7.8 | 0.00 | 0.00 | 0.00 | 53 | 1016.2 |
| 20260503004051 | 60 | 212 | 2.6 | 6.1 | 0.00 | 0.00 | 0.00 | 53 | 1016.3 |
| 20260503003137 | 60 | 9 | 0.9 | 5.2 | 0.00 | 0.00 | 0.00 | 54 | 1016.2 |
| 20260503002027 | 60 | 222 | 1.7 | 6.1 | 0.00 | 0.00 | 0.00 | 54 | 1016.4 |
| 20260503001053 | 60 | 208 | 2.6 | 7.8 | 0.00 | 0.00 | 0.00 | 54 | 1016.3 |
| 20260503000115 | 60 | 175 | 2.6 | 5.2 | 0.00 | 0.00 | 0.00 | 54 | 1016.5 |
| 20260502235036 | 60 | 176 | 1.7 | 4.3 | 0.00 | 0.00 | 0.00 | 54 | 1016.6 |
| 20260502234100 | 60 | 215 | 1.7 | 4.3 | 0.00 | 0.00 | 0.00 | 54 | 1016.6 |
| 20260502233019 | 60 | 96 | 1.7 | 4.3 | 0.00 | 0.00 | 0.00 | 54 | 1016.8 |
| 20260502232044 | 60 | 214 | 0.9 | 3.5 | 0.00 | 0.00 | 0.00 | 54 | 1016.9 |
| 20260502231107 | 60 | 231 | 0.9 | 4.3 | 0.00 | 0.00 | 0.00 | 54 | 1016.9 |
| 20260502230027 | 60 | 202 | 1.7 | 4.3 | 0.00 | 0.00 | 0.00 | 54 | 1016.9 |
| 20260502225052 | 60 | 240 | 0.9 | 4.3 | 0.00 | 0.00 | 0.00 | 53 | 1017.2 |
| 20260502224116 | 60 | 232 | 1.7 | 4.3 | 0.00 | 0.00 | 0.00 | 53 | 1017.1 |
| 20260502223036 | 59 | 217 | 0.9 | 3.5 | 0.00 | 0.00 | 0.00 | 53 | 1017.2 |
| 20260502222100 | 59 | 238 | 0.9 | 3.5 | 0.00 | 0.00 | 0.00 | 53 | 1017.3 |
| 20260502221022 | 59 | 214 | 0.9 | 3.5 | 0.00 | 0.00 | 0.00 | 53 | 1017.2 |
| 20260502220045 | 59 | 229 | 0.9 | 2.6 | 0.00 | 0.00 | 0.00 | 53 | 1017.4 |
| 20260502215108 | 59 | 235 | 0.9 | 2.6 | 0.00 | 0.00 | 0.00 | 52 | 1017.4 |
| 20260502214024 | 58 | 217 | 0.9 | 2.6 | 0.00 | 0.00 | 0.00 | 52 | 1017.4 |
| 20260502213104 | 58 | 196 | 0.9 | 3.5 | 0.00 | 0.00 | 0.00 | 53 | 1017.4 |
| 20260502212128 | 57 | 273 | 0.0 | 2.6 | 0.00 | 0.00 | 0.00 | 54 | 1017.6 |
| 20260502211029 | 55 | 197 | 0.9 | 2.6 | 0.00 | 0.00 | 0.00 | 56 | 1017.6 |
| 20260502210112 | 55 | 253 | 0.0 | 1.7 | 0.00 | 0.00 | 0.00 | 59 | 1017.7 |
| 20260502205115 | 54 | 0.0 | 0.9 | 0.00 | 0.00 | 0.00 | 62 | 1017.8 | |
| 20260502204036 | 54 | 0.0 | 0.0 | 0.00 | 0.00 | 0.00 | 62 | 1017.7 | |
| 20260502203059 | 53 | 0.0 | 0.0 | 0.00 | 0.00 | 0.00 | 64 | 1017.8 | |
| 20260502202039 | 54 | 0.0 | 0.0 | 0.00 | 0.00 | 0.00 | 64 | 1017.9 | |
| 20260502201043 | 54 | 0.0 | 0.0 | 0.00 | 0.00 | 0.00 | 63 | 1018.0 | |
| 20260502200109 | 54 | 0.0 | 0.0 | 0.00 | 0.00 | 0.00 | 60 | 1018.1 | |
| 20260502195028 | 55 | 0.0 | 0.0 | 0.00 | 0.00 | 0.00 | 61 | 1018.0 | |
| 20260502194052 | 56 | 0.0 | 0.0 | 0.00 | 0.00 | 0.00 | 60 | 1018.1 | |
| 20260502193116 | 57 | 0.0 | 0.9 | 0.00 | 0.00 | 0.00 | 62 | 1018.2 | |
| 20260502192036 | 58 | 0.0 | 0.9 | 0.00 | 0.00 | 0.00 | 53 | 1018.1 | |
| 20260502191059 | 58 | 0.0 | 0.9 | 0.00 | 0.00 | 0.00 | 53 | 1018.1 | |
| 20260502190020 | 59 | 0.0 | 0.0 | 0.00 | 0.00 | 0.00 | 52 | 1018.2 | |
| 20260502185043 | 60 | 0.0 | 0.0 | 0.00 | 0.00 | 0.00 | 50 | 1018.0 | |
| 20260502184107 | 62 | 0.0 | 0.0 | 0.00 | 0.00 | 0.00 | 47 | 1018.2 | |
| 20260502183027 | 63 | 0.0 | 0.9 | 0.00 | 0.00 | 0.00 | 46 | 1018.2 | |
| 20260502182051 | 64 | 0.0 | 0.9 | 0.00 | 0.00 | 0.00 | 44 | 1018.3 | |
| 20260502181115 | 66 | 0.0 | 1.7 | 0.00 | 0.00 | 0.00 | 42 | 1018.2 | |
| 20260502164027 | 75 | 275 | 0.9 | 3.5 | 0.00 | 0.00 | 0.00 | 33 | 1019.0 |
| 20260502163044 | 74 | 181 | 1.7 | 3.5 | 0.00 | 0.00 | 0.00 | 33 | 1018.9 |
| 20260502162128 | 75 | 270 | 0.9 | 3.5 | 0.00 | 0.00 | 0.00 | 32 | 1019.1 |
| 20260502161107 | 75 | 326 | 0.9 | 2.6 | 0.00 | 0.00 | 0.00 | 32 | 1019.3 |
| 20260502152051 | 75 | 326 | 1.7 | 4.3 | 0.00 | 0.00 | 0.00 | 31 | 1020.2 |
| 20260502151118 | 74 | 163 | 1.7 | 3.5 | 0.00 | 0.00 | 0.00 | 31 | 1020.3 |
| 20260502123050 | 78 | 236 | 6.1 | 11.3 | 0.00 | 0.00 | 0.00 | 24 | 1021.6 |
| 20260502122114 | 79 | 247 | 7.0 | 13.0 | 0.00 | 0.00 | 0.00 | 24 | 1021.9 |
| 20260502121056 | 78 | 235 | 3.5 | 11.3 | 0.00 | 0.00 | 0.00 | 24 | 1022.0 |
| 20260502115018 | 77 | 222 | 5.2 | 9.6 | 0.00 | 0.00 | 0.00 | 25 | 1022.2 |
| 20260502114042 | 78 | 243 | 2.6 | 8.7 | 0.00 | 0.00 | 0.00 | 25 | 1022.3 |
| 20260502113059 | 77 | 223 | 4.3 | 8.7 | 0.00 | 0.00 | 0.00 | 26 | 1022.5 |
| 20260502112020 | 77 | 237 | 4.3 | 12.2 | 0.00 | 0.00 | 0.00 | 26 | 1022.6 |
| 20260502111103 | 79 | 230 | 3.5 | 7.8 | 0.00 | 0.00 | 0.00 | 25 | 1022.8 |
| 20260502110108 | 78 | 205 | 1.7 | 7.8 | 0.00 | 0.00 | 0.00 | 26 | 1022.7 |
| 20260502105028 | 80 | 237 | 0.9 | 3.5 | 0.00 | 0.00 | 0.00 | 25 | 1022.9 |
| 20260502104051 | 76 | 225 | 2.6 | 4.3 | 0.00 | 0.00 | 0.00 | 27 | 1023.0 |
| 20260502103115 | 74 | 258 | 3.5 | 7.0 | 0.00 | 0.00 | 0.00 | 28 | 1023.2 |
| 20260502102056 | 76 | 241 | 3.5 | 7.0 | 0.00 | 0.00 | 0.00 | 27 | 1023.3 |
| 20260502101059 | 74 | 232 | 2.6 | 7.8 | 0.00 | 0.00 | 0.00 | 27 | 1023.4 |
| 20260502091116 | 71 | 257 | 1.7 | 6.1 | 0.00 | 0.00 | 0.00 | 32 | 1024.0 |
| 20260502071040 | 62 | 236 | 1.7 | 4.3 | 0.00 | 0.00 | 0.00 | 45 | 1024.6 |
| 20260502070043 | 61 | 234 | 2.6 | 5.2 | 0.00 | 0.00 | 0.00 | 47 | 1024.9 |
| 20260502065128 | 61 | 237 | 2.6 | 7.0 | 0.00 | 0.00 | 0.00 | 49 | 1024.9 |
| 20260502064027 | 60 | 242 | 3.5 | 6.1 | 0.00 | 0.00 | 0.00 | 50 | 1024.8 |
| 20260502063051 | 59 | 235 | 3.5 | 6.1 | 0.00 | 0.00 | 0.00 | 52 | 1024.8 |
| 20260502062115 | 58 | 253 | 1.7 | 5.2 | 0.00 | 0.00 | 0.00 | 53 | 1024.9 |
| 20260502061035 | 57 | 231 | 3.5 | 7.0 | 0.00 | 0.00 | 0.00 | 55 | 1025.0 |
| 20260502060059 | 56 | 238 | 2.6 | 9.6 | 0.00 | 0.00 | 0.00 | 56 | 1025.0 |
| 20260502055020 | 56 | 233 | 2.6 | 8.7 | 0.00 | 0.00 | 0.00 | 56 | 1024.9 |
| 20260502054043 | 55 | 225 | 3.5 | 7.8 | 0.00 | 0.00 | 0.00 | 57 | 1025.0 |
| 20260502053108 | 54 | 230 | 3.5 | 6.1 | 0.00 | 0.00 | 0.00 | 58 | 1025.0 |
| 20260502052027 | 54 | 226 | 2.6 | 6.1 | 0.00 | 0.00 | 0.00 | 59 | 1025.0 |
| 20260502051051 | 52 | 213 | 1.7 | 5.2 | 0.00 | 0.00 | 0.00 | 60 | 1024.9 |
| 20260502050115 | 52 | 222 | 1.7 | 4.3 | 0.00 | 0.00 | 0.00 | 60 | 1025.0 |
| 20260502045035 | 51 | 219 | 1.7 | 4.3 | 0.00 | 0.00 | 0.00 | 61 | 1024.9 |
| 20260502044058 | 51 | 215 | 1.7 | 5.2 | 0.00 | 0.00 | 0.00 | 62 | 1025.0 |
| 20260502043039 | 51 | 225 | 1.7 | 3.5 | 0.00 | 0.00 | 0.00 | 62 | 1025.0 |
| 20260502042043 | 50 | 203 | 1.7 | 4.3 | 0.00 | 0.00 | 0.00 | 63 | 1024.9 |
| 20260502041106 | 49 | 226 | 1.7 | 4.3 | 0.00 | 0.00 | 0.00 | 63 | 1024.9 |
| 20260502040047 | 48 | 194 | 1.7 | 5.2 | 0.00 | 0.00 | 0.00 | 65 | 1024.8 |
| 20260502035050 | 47 | 200 | 2.6 | 6.1 | 0.00 | 0.00 | 0.00 | 66 | 1024.9 |
| 20260502034114 | 46 | 210 | 2.6 | 4.3 | 0.00 | 0.00 | 0.00 | 68 | 1025.0 |
| 20260502033035 | 46 | 206 | 2.6 | 4.3 | 0.00 | 0.00 | 0.00 | 68 | 1025.0 |
| 20260502032059 | 46 | 203 | 2.6 | 5.2 | 0.00 | 0.00 | 0.00 | 68 | 1024.9 |
| 20260502031019 | 45 | 223 | 2.6 | 4.3 | 0.00 | 0.00 | 0.00 | 68 | 1025.0 |
| 20260502030044 | 46 | 208 | 1.7 | 4.3 | 0.00 | 0.00 | 0.00 | 68 | 1025.0 |
| 20260502025128 | 46 | 213 | 1.7 | 4.3 | 0.00 | 0.00 | 0.00 | 67 | 1025.0 |
| 20260502024027 | 46 | 223 | 1.7 | 2.6 | 0.00 | 0.00 | 0.00 | 68 | 1025.1 |
| 20260502023051 | 46 | 215 | 2.6 | 4.3 | 0.00 | 0.00 | 0.00 | 67 | 1025.0 |
| 20260502022116 | 46 | 199 | 2.6 | 4.3 | 0.00 | 0.00 | 0.00 | 66 | 1025.0 |
| 20260502021034 | 46 | 224 | 2.6 | 3.5 | 0.00 | 0.00 | 0.00 | 66 | 1025.1 |
| 20260502020059 | 47 | 224 | 1.7 | 5.2 | 0.00 | 0.00 | 0.00 | 65 | 1025.1 |
| 20260502015018 | 47 | 214 | 2.6 | 6.1 | 0.00 | 0.00 | 0.00 | 64 | 1025.2 |
| 20260502014044 | 47 | 210 | 2.6 | 4.3 | 0.00 | 0.00 | 0.00 | 65 | 1025.2 |
| 20260502013106 | 47 | 204 | 2.6 | 4.3 | 0.00 | 0.00 | 0.00 | 65 | 1025.2 |
| 20260502012047 | 47 | 202 | 1.7 | 4.3 | 0.00 | 0.00 | 0.00 | 64 | 1025.2 |
| 20260502011050 | 47 | 206 | 1.7 | 3.5 | 0.00 | 0.00 | 0.00 | 64 | 1025.4 |
| 20260502010115 | 48 | 230 | 1.7 | 3.5 | 0.00 | 0.00 | 0.00 | 64 | 1025.3 |